Dewpoint
29 23 23 23 22 25 20 22 24 22 24 23 23 23 23 24 26 25 26 26 26 27 28 29 31 33 41 43 44 45 45 48 46 45 45 44 44 41 42 44 46 47 46 47
26 23 25 26 24 23 23 25 22 23 25 24 24 24 25 25 25 25 25 26 26 27 27 28 30 33 40 43 44 44 45 47 46 45 42 41 38 34 36 37 38 40 41 41
25 25 29 26 26 24 23 22 22 22 25 26 24 23 23 24 25 25 26 26 26 26 27 27 29 31 38 42 44 45 45 45 45 43 34 32 33 33 33 33 35 33 35 36
27 29 28 27 26 25 23 26 25 24 24 22 25 19 22 23 23 25 25 26 26 26 27 27 28 30 36 40 44 45 45 45 44 36 36 38 35 34 34 32 30 29 30 31
24 29 28 27 27 27 25 28 27 27 25 24 23 22 22 26 24 24 24 26 27 27 27 27 28 29 33 39 44 45 44 44 42 37 38 38 36 30 29 29 27 27 26 27
25 32 29 28 29 28 29 27 27 29 26 22 24 22 19 22 23 24 25 26 27 28 28 27 28 30 34 40 43 44 44 43 38 36 36 38 34 29 29 27 26 25 25 24
26 27 28 28 27 28 27 25 20 18 20 20 25 22 19 21 22 25 25 25 27 29 28 28 28 31 37 40 42 43 44 42 38 36 35 35 33 30 30 26 25 23 22 21
21 16 27 28 27 26 26 25 22 13 16 17 25 23 23 27 27 27 27 28 30 29 28 28 29 31 37 40 41 43 43 41 37 36 34 32 31 31 31 27 24 22 20 20
22 22 28 28 28 26 26 25 26 20 14 19 18 20 23 26 27 28 29 29 30 30 29 29 29 32 37 39 40 42 42 41 37 36 33 30 29 28 27 24 22 21 20 19
23 21 28 29 29 30 26 29 24 25 16 14 18 20 20 23 25 26 27 28 29 29 29 28 29 32 36 38 40 42 42 40 36 34 32 30 28 27 25 23 21 20 19 18
26 26 26 28 27 26 27 27 26 26 24 18 16 15 26 23 24 24 26 28 29 29 29 28 29 32 36 37 39 40 40 37 34 33 30 28 27 25 23 23 21 19 18 17
29 29 24 25 29 29 27 26 26 22 20 24 23 18 26 27 27 28 27 27 31 29 29 28 28 32 34 35 36 37 38 36 35 31 27 26 24 23 22 21 19 19 17 17
31 30 23 25 28 28 27 28 26 27 27 23 20 20 26 28 27 27 28 28 28 29 28 27 27 30 32 34 35 36 36 35 33 29 27 25 23 22 22 20 18 17 16 16
36 33 30 26 24 27 26 27 27 26 27 23 23 22 24 27 27 26 27 28 29 29 29 27 26 27 29 32 33 35 34 34 31 29 27 25 23 22 21 20 18 17 16 16
36 32 32 31 29 28 27 27 28 26 25 24 24 24 25 26 27 27 28 28 28 29 28 28 27 27 26 28 31 32 33 31 29 28 27 26 24 22 21 20 19 18 17 16
37 33 34 32 32 32 31 29 29 28 27 27 26 26 27 28 29 29 29 29 29 29 29 29 28 27 27 26 28 29 31 30 28 27 27 26 24 22 23 21 20 18 17 18
37 34 33 31 32 33 31 33 32 31 30 29 27 28 30 30 29 30 30 30 30 30 30 30 29 29 28 26 26 27 29 29 27 28 27 25 24 23 22 21 20 18 18 18
35 35 34 31 30 25 31 33 34 33 32 32 31 31 32 32 32 33 33 32 32 32 31 31 31 30 29 28 26 27 28 27 27 27 26 25 24 24 23 21 20 19 18 18
39 35 33 31 29 29 30 31 31 31 32 34 32 32 31 32 32 31 33 33 33 34 34 33 33 32 29 28 27 26 26 25 26 26 25 25 24 24 22 22 20 20 20 20
37 38 35 32 28 25 27 29 33 33 30 33 34 34 34 33 31 32 34 33 33 32 33 33 33 31 29 27 26 25 24 24 24 25 24 24 25 25 24 23 23 23 23 24
33 35 32 32 30 29 30 27 33 29 28 26 30 33 32 34 34 31 31 30 30 30 30 29 28 27 25 25 25 24 23 23 24 25 24 24 24 26 25 25 25 26 26 25
32 31 31 33 30 28 29 29 30 30 26 28 27 27 28 30 29 28 28 28 29 29 29 27 24 23 24 25 24 23 23 24 24 24 24 25 27 27 27 27 27 27 26 25
31 34 32 33 33 36 30 32 30 26 25 24 26 22 24 26 26 27 27 27 28 29 28 26 24 24 24 23 24 23 23 24 24 24 25 27 28 28 29 28 27 26 26 26
29 32 33 33 33 33 32 30 29 25 23 23 24 23 23 24 27 27 27 27 26 24 25 25 26 24 26 28 29 29 29 28 29 29 29 29 29 29 29 30 28 28 26 25
25 32 32 31 30 28 30 29 29 27 28 25 25 22 22 27 26 26 25 26 25 26 26 28 28 25 23 24 25 27 28 31 30 29 26 28 28 27 26 24 25 25 22 26
29 29 30 29 31 32 31 30 30 32 33 27 18 19 19 20 22 24 24 23 24 24 24 24 22 20 18 17 15 16 20 24 24 22 22 23 22 21 21 19 18 21 21 23
Lifted_Index
7 6 5 5 6 6 5 4 3 4 6 5 4 4 5 6 6 6 6 6 6 6 6 6 7 8 8 9 9 9 9 9 9 8 6 5 6 5 5 5 5 4 4 4
6 6 5 6 6 5 4 4 4 4 6 6 5 4 4 5 6 6 6 6 6 6 6 7 7 7 8 8 9 9 9 9 9 8 7 6 6 6 5 6 5 5 5 4
6 6 6 6 5 5 4 4 4 4 5 5 4 3 3 4 5 5 6 6 6 6 6 7 7 7 7 7 8 9 10 10 10 9 7 6 6 6 6 6 6 7 6 5
6 6 6 5 5 5 4 5 5 5 4 4 4 3 2 3 4 4 4 5 5 6 7 7 7 7 7 7 8 9 10 10 10 9 8 7 6 7 7 7 7 7 7 6
6 6 6 5 5 5 5 6 6 5 4 3 3 2 2 3 3 3 4 4 5 6 6 6 6 6 7 7 8 9 10 10 10 9 8 7 7 7 7 7 7 7 7 6
6 6 7 6 6 6 6 5 5 4 3 2 2 2 2 3 4 4 4 4 5 6 6 6 6 6 6 7 8 9 10 10 10 10 9 8 7 7 7 7 7 7 7 6
5 5 6 6 6 6 5 4 3 2 1 1 2 2 3 4 6 5 5 5 5 5 5 5 5 6 6 6 7 9 10 10 10 10 9 8 7 7 7 7 7 7 7 6
3 4 5 6 6 5 4 4 2 1 1 1 2 3 4 6 7 6 5 5 5 5 5 5 5 6 6 6 7 8 9 10 10 10 9 8 8 8 8 7 7 7 6 6
3 4 5 6 6 5 5 4 4 3 2 1 2 3 4 6 6 6 5 5 4 4 5 5 5 6 6 6 7 8 9 10 10 10 9 8 8 8 8 7 7 7 6 6
4 4 5 6 6 6 5 5 4 3 2 1 1 2 4 6 6 6 5 4 4 4 4 5 5 6 6 6 7 8 9 10 10 10 9 8 8 8 8 8 7 7 7 7
4 4 4 5 5 5 5 5 5 4 3 2 1 2 4 6 6 5 5 4 4 4 5 5 5 6 6 7 7 8 9 10 10 10 9 8 8 8 8 8 8 7 7 8
2 2 3 4 5 5 5 5 5 4 3 3 2 3 5 6 6 5 5 4 4 4 4 5 5 5 6 6 7 8 8 9 10 10 10 9 8 8 8 8 8 7 8 9
1 1 1 2 3 4 4 4 4 3 3 3 2 4 6 6 5 5 4 4 4 4 4 5 5 5 6 6 7 7 8 9 10 10 10 9 8 8 8 8 7 7 8 10
1 1 1 1 2 2 2 2 2 2 2 2 3 4 5 6 5 5 5 4 4 4 4 4 5 6 6 6 6 7 7 9 10 10 10 9 9 8 8 7 7 8 9 11
0 0 0 1 1 1 1 1 2 2 2 3 3 4 5 5 5 5 5 4 4 4 4 4 5 6 6 6 6 6 7 8 9 10 10 10 9 8 8 8 7 8 10 12
-0 -0 0 1 1 1 1 2 2 3 3 3 3 4 5 5 4 4 4 4 4 4 4 4 5 6 6 6 5 6 6 7 8 9 9 9 9 9 8 8 7 8 10 13
-0 0 0 1 1 1 1 2 2 3 3 3 3 4 4 4 4 4 4 4 5 4 4 5 5 6 6 5 5 5 5 6 7 7 8 9 9 9 8 8 8 8 11 13
0 0 0 1 1 2 2 3 3 3 3 3 3 4 4 4 3 3 4 4 4 4 4 5 5 5 5 5 5 5 5 6 6 7 7 8 9 9 9 8 8 9 11 13
1 0 0 1 1 2 3 3 3 3 3 3 4 4 4 3 3 3 3 3 4 4 4 5 5 5 5 5 5 5 5 5 6 6 7 8 10 10 9 8 8 10 12 14
1 0 0 0 1 2 3 4 3 2 2 3 4 4 3 3 3 3 3 3 3 4 4 4 5 5 5 5 5 5 5 5 6 7 8 10 11 11 10 10 10 11 14 16
1 1 0 0 0 1 3 3 3 2 2 3 3 3 3 2 2 3 3 3 3 4 4 4 4 5 5 6 5 5 6 7 8 9 10 11 12 12 12 11 12 14 15 16
1 1 1 0 0 1 2 3 2 2 2 2 3 3 3 2 2 3 3 3 3 4 4 4 4 5 6 7 7 7 8 9 11 12 12 13 14 14 13 13 14 15 16 16
1 1 1 1 1 1 2 2 2 1 1 2 2 2 2 2 2 2 3 3 4 4 5 5 5 6 7 8 8 9 10 11 12 12 12 13 13 13 13 14 14 15 15 15
3 2 2 2 2 2 2 2 1 1 1 1 1 1 1 1 2 2 3 4 4 5 6 6 6 7 7 8 9 9 10 11 11 11 11 11 11 11 12 13 13 13 13 13
3 3 3 2 2 2 1 1 1 0 0 0 1 1 1 1 2 3 3 4 5 6 7 7 8 8 8 9 9 10 10 10 11 11 11 10 10 11 11 12 12 12 12 12
3 3 3 2 2 1 1 0 0 0 0 0 0 1 2 2 3 3 4 5 6 7 7 8 8 9 9 9 10 10 11 11 11 11 11 11 11 11 11 12 12 12 13 13